Regional Weather Roundup
Issued by NWS State College, PA

Home | Current Version | Previous Version | Graphics & Text | Print | Product List | Glossary Off
Versions: 1 2 3 4 5 6 7 8 9 10 11 12 13 14 15 16 17 18 19 20 21 22 23 24 25 26 27 28 29 30 31 32 33 34 35 36 37 38 39 40 41 42 43 44 45 46 47 48 49 50

579
ASUS41 KCTP 290910
RWRCTP

REGIONAL WEATHER ROUNDUP
NATIONAL WEATHER SERVICE STATE COLLEGE PA
500 AM EDT FRI JUL 29 2016

Note: "fair" indicates few or no clouds below 12,000 feet with no
significant weather and/or obstructions to visibility.

* = STATION THAT DOES NOT REPORT PRECIPITATION /E.G. RAIN...SNOW...ETC/
    THUNDER OR FOG.

PAZ002>004-007>009-013>016-020>023-029>032-291000-
WESTERN PENNSYLVANIA

CITY           SKY/WX    TMP DP  RH WIND       PRES   REMARKS
ERIE           CLOUDY    69  65  86 S3        29.92S
MEADVILLE      MOCLDY    63  62  97 CALM      29.95R FOG
FRANKLIN*      CLOUDY    63  61  94 CALM      29.95S VSB 1/4
NEW CASTLE     FOG       65  65 100 CALM      29.94S VSB 1/4
BEAVER COUNTY  NOT AVBL
BUTLER*        CLOUDY    63  61  94 SW3       29.96R VSB 1/4
PITTSBURGH INT MOCLDY    65  63  93 CALM      29.93R FOG
PITTSBURGH     FOG       68  66  93 VRB5      29.92S VSB 1/4
INDIANA*       FOG       68  68 100 CALM      29.96S VSB 1/4
LATROBE        CLOUDY    66  66 100 CALM      29.93S FOG
WASHINGTON CO* CLOUDY    66  66 100 CALM      29.94S
$$

PAZ004>006-010>012-017>019-024>028-033>037-041-042-045-046-049>053-291000-
CENTRAL PENNSYLVANIA

CITY           SKY/WX    TMP DP  RH WIND       PRES   REMARKS
BRADFORD       FOG       66  65  96 NW3       29.95F VSB 1/4
DUBOIS         FOG       64  62  93 CALM      29.93S VSB 1/4
CLEARFIELD     FOG       64  63  96 CALM      29.92S VSB 1/4
JOHNSTOWN      FOG       65  62  90 NW6       29.95R VSB 1/4
ALTOONA        PTCLDY    65  65 100 W5        29.91S FOG
STATE COLLEGE  FOG       65  65  99 CALM      29.89S VSB<1/4
WILLIAMSPORT   CLOUDY    71  66  84 W6        29.83F
SELINSGROVE    MOCLDY    68  68 100 CALM      29.85F FOG
FT INDIANTOWN  CLOUDY    70  70  98 SE1       29.83S
CAPITAL CITY   CLOUDY    74  68  81 CALM      29.82F
HARRISBURG     CLOUDY    72  71  97 NW5       29.82S
YORK           CLOUDY    72  70  93 CALM      29.83R FOG
$$

PAZ038>040-043-044-047-048-054-055-060>062-067>071-291000-
EASTERN PENNSYLVANIA

CITY           SKY/WX    TMP DP  RH WIND       PRES   REMARKS
SCRANTON       CLOUDY    70  69  97 CALM      29.85F FOG
MOUNT POCONO   LGT RAIN  67  65  93 CALM      29.89F
ALLENTOWN      RAIN      73  69  87 CALM      29.83F FOG
QUAKERTOWN*    CLOUDY    72  70  94 CALM      29.84F
READING        RAIN      71  69  93 CALM      29.81F
LANCASTER      LGT RAIN  69  69 100 E3        29.82F
COATESVILLE    LGT RAIN  70  68  94 NE7G13    29.83F
POTTSTOWN      CLOUDY    70  68  93 N6        29.84S
BLUE BELL      CLOUDY    70  70 100 N3        29.80F
DOYLESTOWN     LGT RAIN  70  70 100 N7        29.81F
WILLOW GROVE   NOT AVBL
NORTH PHILA    LGT RAIN  75  73  93 NE12      29.81F
PHILADELPHIA   LGT RAIN  75  72  90 N14       29.80F
$$




USA.gov is the U.S. government's official web portal to all federal, state and local government web resources and services.